CAPE
0 0 0 0 0 0 0 0 0 0 0 0 0 0 1 1 0 1 3 6 10 11
0 0 0 0 0 0 0 0 0 0 0 0 0 0 0 0 0 0 1 3 7 10
0 0 0 0 0 0 0 0 0 0 0 0 0 0 0 0 0 0 0 3 4 5
0 0 0 0 0 0 0 0 0 0 0 0 0 0 0 0 0 0 0 2 4 6
0 0 0 0 0 0 0 0 0 0 0 0 0 0 0 0 0 0 0 0 3 5
0 0 1 0 0 0 0 0 0 0 0 0 0 0 0 0 0 0 0 0 0 0
0 0 0 0 0 0 0 0 0 0 0 0 0 0 0 0 0 0 0 0 0 0
0 0 0 0 0 0 0 0 0 0 0 0 0 0 0 0 0 0 0 0 0 0
0 0 0 0 0 0 0 0 0 0 0 0 2 1 0 0 0 0 0 0 0 0
0 0 0 0 0 0 0 0 0 0 0 0 0 1 1 0 0 0 0 0 0 0
0 0 0 0 0 0 0 0 0 0 0 0 0 0 0 0 0 0 0 0 0 0
0 0 0 0 0 0 0 0 0 0 0 0 0 2 0 0 0 0 0 0 0 0
0 0 0 0 0 0 0 0 0 0 0 0 0 3 1 0 0 0 0 0 0 4
0 0 0 0 0 0 0 0 0 0 0 0 0 0 3 1 0 0 0 0 0 0
CIN
-0 -0 -0 -0 -0 -0 -0 -0 -0 -0 -0 -0 -0 -0 -0 -0 -0 -0 -0 -0 -0 -0
-0 -0 -0 -0 -0 -0 -0 -0 -0 -0 -0 -0 -0 -0 -0 -0 -0 -0 -0 -0 -0 -0
-0 -0 -0 -0 -0 -0 -0 -0 -0 -0 -0 -0 -0 -0 -0 -0 -0 -0 -0 -0 -0 -0
-0 -0 -0 -0 -0 -0 -0 -0 -0 -0 -0 -0 -0 -0 -0 -0 -0 -0 -0 -0 -0 -0
-0 -0 -0 -0 -0 -0 -0 -0 -0 -0 -0 -0 -0 -0 -0 -0 -0 -0 -0 -0 -0 -0
-0 -0 -0 -0 -0 -0 -0 -0 -0 -0 -0 -0 -0 -0 -0 -0 -0 -0 -0 -0 -0 -0
-0 -0 -0 -0 -0 -0 -0 -0 -0 -0 -0 -0 -0 -0 -0 -0 -0 -0 -0 -0 -0 -0
-0 -0 -0 -0 -0 -0 -0 -0 -0 -0 -0 -0 -0 -0 -0 -0 -0 -0 -0 -0 -0 -0
-0 -0 -0 -0 -0 -0 -0 -0 -0 -0 -0 -0 -0 -0 -0 -0 -0 -0 -0 -0 -0 -0
-0 -0 -0 -0 -0 -0 -0 -0 -0 -0 -0 -0 -0 -0 -0 -0 -0 -0 -0 -0 -0 -0
-0 -0 -0 -0 -0 -0 -0 -0 -0 -0 -0 -0 -0 -0 -0 -0 -0 -0 -0 -0 -0 -0
-0 -0 -0 -0 -0 -0 -0 -0 -0 -0 -0 -0 -0 -0 -0 -0 -0 -0 -0 -0 -0 -0
-0 -0 -0 -0 -0 -0 -0 -0 -0 -0 -0 -0 -0 -0 -0 -0 -0 -0 -0 -0 -0 -0
-0 -0 -0 -0 -0 -0 -0 -0 -0 -0 -0 -0 -0 -0 -0 -0 -0 -0 -0 -0 -0 -0
Wind_Speed
5 4 4 4 4 4 4 5 7 8 8 9 9 9 9 7 8 11 10 13 11 8
5 5 5 5 5 3 4 6 7 8 8 9 9 10 9 8 11 10 9 10 12 10
5 5 4 5 6 5 5 6 7 8 9 9 10 10 10 9 10 11 10 9 13 13
4 4 4 6 5 5 5 7 8 8 9 9 10 11 10 11 12 12 12 13 14 15
5 3 5 5 5 5 5 6 6 7 8 8 10 9 10 11 10 10 12 12 14 16
4 5 5 3 2 4 5 6 6 6 6 6 6 7 8 7 8 9 10 11 12 12
4 6 5 4 4 2 4 5 6 5 4 2 3 6 5 7 7 7 8 8 10 12
7 6 6 5 4 4 5 5 4 5 6 4 3 6 6 8 6 7 9 8 10 12
8 6 5 5 4 4 4 4 5 7 7 6 7 15 15 10 7 7 10 10 10 11
8 7 6 5 5 5 4 3 4 5 6 7 7 14 15 15 9 9 9 11 10 11
8 7 6 5 5 4 3 3 4 6 6 5 8 13 13 13 8 8 10 9 12 12
8 8 7 6 5 4 4 4 5 6 6 6 5 13 12 10 7 9 10 10 9 11
7 7 6 6 5 4 3 5 5 7 6 11 6 13 15 11 6 7 6 7 8 19
6 6 6 5 4 4 5 6 4 4 4 5 7 6 12 13 5 1 3 4 4 3
Wind_Direction
64 50 43 41 33 25 8 6 2 9 9 9 6 6 6 13 8 8 4 354 351 337
70 60 46 41 36 19 3 22 12 21 17 14 15 14 14 19 13 2 359 5 358 356
104 80 60 51 45 29 8 17 21 24 26 23 21 15 19 21 12 11 4 5 13 14
106 99 78 59 37 25 23 22 28 30 34 33 31 23 26 25 12 12 10 8 21 17
107 102 93 70 50 32 30 25 30 29 41 41 38 28 30 32 14 6 9 13 21 23
122 122 113 113 73 41 36 27 19 26 28 33 36 27 22 17 8 7 4 4 15 17
96 113 130 149 112 69 45 29 16 8 360 14 37 38 19 22 1 8 3 356 17 18
122 111 108 109 99 72 59 34 4 19 13 14 47 54 37 26 7 20 24 12 20 31
124 123 122 115 98 77 63 42 27 44 41 23 47 51 49 42 29 17 38 33 27 30
136 134 131 120 104 91 74 55 37 36 52 50 50 53 50 44 40 36 35 41 34 36
141 138 134 125 115 103 79 60 50 41 26 46 58 54 51 42 38 37 37 46 44 40
148 145 145 144 139 124 94 67 65 50 38 30 28 56 49 45 38 38 32 31 55 46
143 143 150 149 144 133 124 89 75 69 29 41 8 65 54 48 43 39 23 20 16 54
137 142 147 147 140 134 113 94 61 62 8 25 18 25 59 57 47 27 17 15 357 350